• Processing (Info)

  • MPEC 2013-D06 : 2013 CH129

    The following Minor Planet Electronic Circular may be linked-to from your own Web pages, but must not otherwise be redistributed electronically.

    A form allowing access to any MPEC is at the bottom of this page.


    Read MPEC 2013-D05 Read MPEC 2013-D07


    M.P.E.C. 2013-D06                                Issued 2013 Feb. 16, 15:52 UT
    
         The Minor Planet Electronic Circulars contain information on unusual
             minor planets and routine data on comets.  They are published
       on behalf of Commission 20 of the International Astronomical Union by the
              Minor Planet Center, Smithsonian Astrophysical Observatory,
                              Cambridge, MA 02138, U.S.A.
    
                 Prepared using the Tamkin Foundation Computer Network
    
                                  MPC@CFA.HARVARD.EDU
                URL https://www.minorplanetcenter.net/    ISSN 1523-6714
    
                                      2013 CH129
    
    Observations:
         K13CC9H  C2013 02 14.39267 10 43 09.803+11 18 41.65         21.6 wLED006F51
         K13CC9H* C2013 02 14.39525 10 43 08.11 +11 18 38.1          20.9 VrED006G96
         K13CC9H  C2013 02 14.40115 10 43 09.58 +11 18 49.6          21.1 VrED006G96
         K13CC9H  C2013 02 14.40697 10 43 11.10 +11 19 01.3          19.7 VrED006G96
         K13CC9H  C2013 02 14.40728 10 43 13.596+11 19 11.28         21.6 wLED006F51
         K13CC9H  C2013 02 14.41284 10 43 12.64 +11 19 13.1          21.0 VrED006G96
         K13CC9H  C2013 02 14.42187 10 43 17.382+11 19 41.11         21.5 wLED006F51
         K13CC9H  C2013 02 14.43656 10 43 21.203+11 20 10.87         21.6 wLED006F51
         K13CC9H KC2013 02 14.44760 10 43 21.82 +11 20 22.8          20.7 RoED006291
         K13CC9H KC2013 02 14.44909 10 43 22.21 +11 20 25.6          20.5 RoED006291
         K13CC9H KC2013 02 14.45058 10 43 22.61 +11 20 28.8          20.3 RoED006291
         K13CC9H KC2013 02 15.09536 10 46 25.70 +11 42 09.8                uED006J95
         K13CC9H KC2013 02 15.11572 10 46 31.25 +11 42 52.9          20.8 RuED006J95
         K13CC9H  C2013 02 16.27452 10 52 11.92 +12 23 42.9          21.6 VrED006G96
         K13CC9H  C2013 02 16.27599 10 52 12.43 +12 23 45.9          20.6 VrED006G96
         K13CC9H  C2013 02 16.27746 10 52 12.79 +12 23 48.9          21.0 VrED006G96
         K13CC9H  C2013 02 16.27895 10 52 13.29 +12 23 52.4          21.2 VrED006G96
         K13CC9H  C2013 02 16.28040 10 52 13.65 +12 23 55.4          21.0 VrED006G96
    
    Observer details:
    291 LPL/Spacewatch II.  Observer R. S. McMillan.  1.8-m f/2.7 reflector + CCD.
    F51 Pan-STARRS 1, Haleakala.  Observers N. Primak, A. Schultz, S. Watters,
        T. Goggia.  Measurer PS1 Science Consortium.  1.8-m Ritchey-Chretien
        + CCD.
    G96 Mt. Lemmon Survey.  Observers R. E. Hill, A. Boattini.  Measurers
        A. Boattini, E. J. Christensen, A. R. Gibbs, A. D. Grauer, R. E. Hill,
        J. A. Johnson, R. A. Kowalski, S. M. Larson, R. H. McNaught.  1.5-m
        reflector + CCD.
    J95 Great Shefford.  Observer P. Birtwhistle.  0.40-m f/6.0 Schmidt-Cassegrain
        + CCD.
    
    Orbital elements:
    2013 CH129                                               Earth MOID = 0.1347 AU
    Epoch 2013 Apr. 18.0 TT = JDT 2456400.5                 MPC
    M   9.44262              (2000.0)            P               Q
    n   0.26557970     Peri.   30.64493     -0.99329331     -0.08253321
    a   2.3970263      Node   144.34131     +0.05570403     -0.95528987
    e   0.5363897      Incl.    7.98427     +0.10131861     -0.28391818
    P   3.71           H   24.1           G   0.15           U   8
    Residuals in seconds of arc
    130214 F51  0.1+  0.2+    130214 F51  0.2-  0.1+    130215 J95  0.2+  0.2+
    130214 G96  0.6+  0.4+    130214 F51  0.1-  0.1-    130216 G96  1.2-  0.5+
    130214 G96  0.4-  0.1+    130214 291  0.1+  0.2+    130216 G96  0.2+  0.3+
    130214 G96  0.4-  0.2+    130214 291  0.1+  0.0     130216 G96  0.5-  0.2+
    130214 F51  0.1-  0.0     130214 291  0.2+  0.3+    130216 G96  0.6+  0.4+
    130214 G96  0.3-  0.3+    130215 J95  0.3+  1.2-    130216 G96  0.1-  0.3+
    
    Ephemeris:
    2013 CH129               a,e,i = 2.40, 0.54, 8                   q = 1.1113
    Date    TT    R. A. (2000) Decl.     Delta      r     Elong.  Phase     V
    2013 01 17    09 21 13.4 +03 20 49   0.3291  1.2854   152.8    20.5    23.2
    ...
    2013 02 01    09 54 26.1 +05 41 53   0.2329  1.2092   162.1    14.5    22.2
    ...
    2013 02 09    10 20 30.1 +08 35 30   0.1938  1.1758   166.3    11.5    21.6
    ...
    2013 02 15    10 45 58.9 +11 39 26   0.1706  1.1548   167.3    10.9    21.3
    2013 02 16    10 50 48.8 +12 14 15   0.1673  1.1517   167.1    11.0    21.2
    2013 02 17    10 55 49.4 +12 50 07   0.1642  1.1486   166.8    11.3    21.2
    ...
    2013 02 23    11 29 37.4 +16 40 59   0.1491  1.1328   162.9    14.9    21.1
    ...
    2013 03 03    12 23 04.1 +21 47 07   0.1393  1.1182   154.1    22.8    21.1
    ...
    2013 03 18    14 02 41.4 +27 01 52   0.1497  1.1126   139.0    36.0    21.7
    
    A. U. Tomatic                (C) Copyright 2013 MPC           M.P.E.C. 2013-D06
    

    Read MPEC 2013-D05 Read MPEC 2013-D07


    MPEC number:

    Enter an MPEC number in one of the following forms:

    • 1997-B01 (the full form)
    • J97B01 (the packed version of the full form)
    • B01 (the abbreviated form)